Location: Mascot Post Office (historical)
(40.2645°N, 99.5462°W)
Time: 16:17:36
(UTC+00:00)

MOS 1-B Rocket - Pass Details

Date: 14 July 2020
Orbit: 891 x 1605 km, 99.1° (Epoch: 04 August)

Event Time Altitude Azimuth Distance (km) Brightness Sun altitude
Rises 05:34:02 0° 12° (NNE) 4,161 8.2 -26.0°
Reaches altitude 10° 05:36:51 10° 12° (NNE) 3,090 7.4 -26.2°
Maximum altitude 05:43:46 82° 287° (WNW) 1,053 4.1 -26.6°
Enters shadow 05:45:10 57° 208° (SSW) 1,185 4.1 -26.6°
